Data supplied by UK-AIR on 30/3/2022
All Data GMT hour ending 
Status: R =Ratified P=Provisional,P*=As supplied
,,Cardiff Newport Road,,,,,,,,,,,,,,,,,,,,,,,
Date,time,"PM<sub>10</sub> particulate matter (Hourly measured)",status,unit,"Nitric oxide",status,unit,"Nitrogen dioxide",status,unit,"Nitrogen oxides as nitrogen dioxide",status,unit
 
01-01-2021,01:00,85.992,R,ugm-3 (Ref.eq),75.49848,R,ugm-3,52.87225,R,ugm-3,168.63498,R,ugm-3
01-01-2021,02:00,57.972,R,ugm-3 (Ref.eq),58.62022,R,ugm-3,50.78452,R,ugm-3,140.66760,R,ugm-3
01-01-2021,03:00,33.817,R,ugm-3 (Ref.eq),41.20883,R,ugm-3,45.58564,R,ugm-3,108.77164,R,ugm-3
01-01-2021,04:00,38.648,R,ugm-3 (Ref.eq),86.39903,R,ugm-3,42.23291,R,ugm-3,174.70958,R,ugm-3
01-01-2021,05:00,34.783,R,ugm-3 (Ref.eq),60.26494,R,ugm-3,39.00365,R,ugm-3,131.40860,R,ugm-3
01-01-2021,06:00,25.121,R,ugm-3 (Ref.eq),15.21086,R,ugm-3,37.94218,R,ugm-3,61.26517,R,ugm-3
01-01-2021,07:00,12.561,R,ugm-3 (Ref.eq),4.83208,R,ugm-3,28.62314,R,ugm-3,36.03223,R,ugm-3
01-01-2021,08:00,9.662,R,ugm-3 (Ref.eq),5.07029,R,ugm-3,30.64620,R,ugm-3,38.42053,R,ugm-3
01-01-2021,09:00,9.662,R,ugm-3 (Ref.eq),7.86064,R,ugm-3,38.67266,R,ugm-3,50.72548,R,ugm-3
01-01-2021,10:00,7.730,R,ugm-3 (Ref.eq),5.27446,R,ugm-3,31.00810,R,ugm-3,39.09549,R,ugm-3
01-01-2021,11:00,11.594,R,ugm-3 (Ref.eq),8.84748,R,ugm-3,29.99463,R,ugm-3,43.56058,R,ugm-3
01-01-2021,12:00,12.561,R,ugm-3 (Ref.eq),11.19546,R,ugm-3,31.06721,R,ugm-3,48.23334,R,ugm-3
01-01-2021,13:00,9.662,R,ugm-3 (Ref.eq),17.62690,R,ugm-3,27.54000,R,ugm-3,54.56754,R,ugm-3
01-01-2021,14:00,9.662,R,ugm-3 (Ref.eq),13.06705,R,ugm-3,18.74811,R,ugm-3,38.78397,R,ugm-3
01-01-2021,15:00,9.662,R,ugm-3 (Ref.eq),18.85193,R,ugm-3,25.14244,R,ugm-3,54.04834,R,ugm-3
01-01-2021,16:00,8.696,R,ugm-3 (Ref.eq),20.92769,R,ugm-3,32.39551,R,ugm-3,64.48419,R,ugm-3
01-01-2021,17:00,13.527,R,ugm-3 (Ref.eq),12.04618,R,ugm-3,24.20739,R,ugm-3,42.67794,R,ugm-3
01-01-2021,18:00,19.324,R,ugm-3 (Ref.eq),37.15941,R,ugm-3,45.87583,R,ugm-3,102.85280,R,ugm-3
01-01-2021,19:00,25.121,R,ugm-3 (Ref.eq),38.58862,R,ugm-3,51.05700,R,ugm-3,110.22539,R,ugm-3
01-01-2021,20:00,19.324,R,ugm-3 (Ref.eq),20.41726,R,ugm-3,38.99316,R,ugm-3,70.29919,R,ugm-3
01-01-2021,21:00,14.493,R,ugm-3 (Ref.eq),15.89143,R,ugm-3,33.42003,R,ugm-3,57.78656,R,ugm-3
01-01-2021,22:00,16.425,R,ugm-3 (Ref.eq),21.06380,R,ugm-3,37.06725,R,ugm-3,69.36464,R,ugm-3
01-01-2021,23:00,12.561,R,ugm-3 (Ref.eq),13.23719,R,ugm-3,25.91174,R,ugm-3,46.20848,R,ugm-3
01-01-2021,24:00,9.662,R,ugm-3 (Ref.eq),5.58072,R,ugm-3,13.30119,R,ugm-3,21.85817,R,ugm-3
02-01-2021,01:00,5.797,R,ugm-3 (Ref.eq),3.17662,R,ugm-3,19.00581,R,ugm-3,23.87655,R,ugm-3
02-01-2021,02:00,7.730,R,ugm-3 (Ref.eq),2.90434,R,ugm-3,18.73122,R,ugm-3,23.18448,R,ugm-3
02-01-2021,03:00,4.831,R,ugm-3 (Ref.eq),5.30949,R,ugm-3,27.82944,R,ugm-3,35.97054,R,ugm-3
02-01-2021,04:00,3.865,R,ugm-3 (Ref.eq),1.12316,R,ugm-3,15.14715,R,ugm-3,16.86930,R,ugm-3
02-01-2021,05:00,6.763,R,ugm-3 (Ref.eq),9.22354,R,ugm-3,23.90421,R,ugm-3,38.04676,R,ugm-3
02-01-2021,06:00,5.797,R,ugm-3 (Ref.eq),4.11826,R,ugm-3,24.10208,R,ugm-3,30.41665,R,ugm-3
02-01-2021,07:00,4.831,R,ugm-3 (Ref.eq),2.82492,R,ugm-3,23.95704,R,ugm-3,28.28852,R,ugm-3
02-01-2021,08:00,2.899,R,ugm-3 (Ref.eq),42.20363,R,ugm-3,42.52552,R,ugm-3,107.23686,R,ugm-3
02-01-2021,09:00,13.527,R,ugm-3 (Ref.eq),58.47245,R,ugm-3,46.69935,R,ugm-3,136.35586,R,ugm-3
02-01-2021,10:00,9.662,R,ugm-3 (Ref.eq),60.31035,R,ugm-3,46.21703,R,ugm-3,138.69161,R,ugm-3
02-01-2021,11:00,6.763,R,ugm-3 (Ref.eq),10.68705,R,ugm-3,30.89937,R,ugm-3,47.28595,R,ugm-3
02-01-2021,12:00,6.763,R,ugm-3 (Ref.eq),8.67897,R,ugm-3,29.56641,R,ugm-3,42.87398,R,ugm-3
02-01-2021,13:00,11.594,R,ugm-3 (Ref.eq),10.44880,R,ugm-3,31.36849,R,ugm-3,47.38976,R,ugm-3
02-01-2021,14:00,16.425,R,ugm-3 (Ref.eq),26.68359,R,ugm-3,38.81265,R,ugm-3,79.72692,R,ugm-3
02-01-2021,15:00,12.561,R,ugm-3 (Ref.eq),36.24748,R,ugm-3,43.40519,R,ugm-3,98.98387,R,ugm-3
02-01-2021,16:00,9.662,R,ugm-3 (Ref.eq),48.09172,R,ugm-3,50.15893,R,ugm-3,123.89853,R,ugm-3
02-01-2021,17:00,25.121,R,ugm-3 (Ref.eq),82.67147,R,ugm-3,73.80187,R,ugm-3,200.56302,R,ugm-3
02-01-2021,18:00,14.493,R,ugm-3 (Ref.eq),50.61032,R,ugm-3,45.67425,R,ugm-3,123.27567,R,ugm-3
02-01-2021,19:00,13.527,R,ugm-3 (Ref.eq),55.20507,R,ugm-3,56.95173,R,ugm-3,141.59833,R,ugm-3
02-01-2021,20:00,23.189,R,ugm-3 (Ref.eq),45.81136,R,ugm-3,58.32692,R,ugm-3,128.57003,R,ugm-3
02-01-2021,21:00,19.324,R,ugm-3 (Ref.eq),32.77589,R,ugm-3,45.61388,R,ugm-3,95.86954,R,ugm-3
02-01-2021,22:00,12.561,R,ugm-3 (Ref.eq),9.70003,R,ugm-3,18.50210,R,ugm-3,33.37527,R,ugm-3
02-01-2021,23:00,13.527,R,ugm-3 (Ref.eq),10.44880,R,ugm-3,26.12603,R,ugm-3,42.14730,R,ugm-3
02-01-2021,24:00,11.594,R,ugm-3 (Ref.eq),5.37756,R,ugm-3,19.73161,R,ugm-3,27.97709,R,ugm-3
03-01-2021,01:00,7.730,R,ugm-3 (Ref.eq),3.54033,R,ugm-3,14.91302,R,ugm-3,20.34145,R,ugm-3
03-01-2021,02:00,6.763,R,ugm-3 (Ref.eq),1.99711,R,ugm-3,9.32257,R,ugm-3,12.38476,R,ugm-3
03-01-2021,03:00,8.696,R,ugm-3 (Ref.eq),2.21271,R,ugm-3,7.86768,R,ugm-3,11.26045,R,ugm-3
03-01-2021,04:00,6.763,R,ugm-3 (Ref.eq),1.66804,R,ugm-3,8.18391,R,ugm-3,10.74153,R,ugm-3
03-01-2021,05:00,5.797,R,ugm-3 (Ref.eq),0.54467,R,ugm-3,4.30211,R,ugm-3,5.13725,R,ugm-3
03-01-2021,06:00,4.831,R,ugm-3 (Ref.eq),2.04250,R,ugm-3,4.70382,R,ugm-3,7.83561,R,ugm-3
03-01-2021,07:00,4.831,R,ugm-3 (Ref.eq),2.89354,R,ugm-3,7.96536,R,ugm-3,12.40206,R,ugm-3
03-01-2021,08:00,3.865,R,ugm-3 (Ref.eq),3.88074,R,ugm-3,7.80085,R,ugm-3,13.75124,R,ugm-3
03-01-2021,09:00,3.865,R,ugm-3 (Ref.eq),5.85516,R,ugm-3,10.17016,R,ugm-3,19.14795,R,ugm-3
03-01-2021,10:00,6.763,R,ugm-3 (Ref.eq),4.66370,R,ugm-3,11.06299,R,ugm-3,18.21390,R,ugm-3
03-01-2021,11:00,10.628,R,ugm-3 (Ref.eq),8.81678,R,ugm-3,12.01172,R,ugm-3,25.53060,R,ugm-3
03-01-2021,12:00,7.730,R,ugm-3 (Ref.eq),14.33152,R,ugm-3,12.37745,R,ugm-3,34.35214,R,ugm-3
03-01-2021,13:00,5.797,R,ugm-3 (Ref.eq),9.02103,R,ugm-3,11.54287,R,ugm-3,25.37492,R,ugm-3
03-01-2021,14:00,4.831,R,ugm-3 (Ref.eq),16.71443,R,ugm-3,15.00257,R,ugm-3,40.63101,R,ugm-3
03-01-2021,15:00,10.628,R,ugm-3 (Ref.eq),13.14006,R,ugm-3,18.04429,R,ugm-3,38.19211,R,ugm-3
03-01-2021,16:00,11.594,R,ugm-3 (Ref.eq),16.06764,R,ugm-3,17.55105,R,ugm-3,42.18775,R,ugm-3
03-01-2021,17:00,8.696,R,ugm-3 (Ref.eq),16.03360,R,ugm-3,23.67454,R,ugm-3,48.25905,R,ugm-3
03-01-2021,18:00,13.527,R,ugm-3 (Ref.eq),13.34431,R,ugm-3,22.14189,R,ugm-3,42.60288,R,ugm-3
03-01-2021,19:00,12.561,R,ugm-3 (Ref.eq),9.25932,R,ugm-3,14.75801,R,ugm-3,28.95543,R,ugm-3
03-01-2021,20:00,13.527,R,ugm-3 (Ref.eq),8.03382,R,ugm-3,17.51923,R,ugm-3,29.83759,R,ugm-3
03-01-2021,21:00,10.628,R,ugm-3 (Ref.eq),7.01257,R,ugm-3,16.17920,R,ugm-3,26.93166,R,ugm-3
03-01-2021,22:00,9.662,R,ugm-3 (Ref.eq),5.95728,R,ugm-3,14.42435,R,ugm-3,23.55872,R,ugm-3
03-01-2021,23:00,8.696,R,ugm-3 (Ref.eq),4.25520,R,ugm-3,11.94881,R,ugm-3,18.47336,R,ugm-3
03-01-2021,24:00,7.730,R,ugm-3 (Ref.eq),3.37012,R,ugm-3,9.93297,R,ugm-3,15.10041,R,ugm-3
04-01-2021,01:00,10.628,R,ugm-3 (Ref.eq),2.04288,R,ugm-3,6.41306,R,ugm-3,9.54544,R,ugm-3
04-01-2021,02:00,7.730,R,ugm-3 (Ref.eq),1.18033,R,ugm-3,5.72969,R,ugm-3,7.53951,R,ugm-3
04-01-2021,03:00,7.730,R,ugm-3 (Ref.eq),1.22573,R,ugm-3,4.65712,R,ugm-3,6.53655,R,ugm-3
04-01-2021,04:00,11.594,R,ugm-3 (Ref.eq),1.49811,R,ugm-3,4.96576,R,ugm-3,7.26283,R,ugm-3
04-01-2021,05:00,12.561,R,ugm-3 (Ref.eq),1.83859,R,ugm-3,5.42936,R,ugm-3,8.24850,R,ugm-3
04-01-2021,06:00,8.696,R,ugm-3 (Ref.eq),3.03028,R,ugm-3,7.95984,R,ugm-3,12.60620,R,ugm-3
04-01-2021,07:00,9.662,R,ugm-3 (Ref.eq),10.55489,R,ugm-3,16.03190,R,ugm-3,32.21584,R,ugm-3
04-01-2021,08:00,14.493,R,ugm-3 (Ref.eq),22.13122,R,ugm-3,31.84642,R,ugm-3,65.78049,R,ugm-3
04-01-2021,09:00,11.594,R,ugm-3 (Ref.eq),23.62934,R,ugm-3,25.86606,R,ugm-3,62.09720,R,ugm-3
04-01-2021,10:00,8.696,R,ugm-3 (Ref.eq),19.61167,R,ugm-3,22.99973,R,ugm-3,53.07054,R,ugm-3
04-01-2021,11:00,8.696,R,ugm-3 (Ref.eq),16.71759,R,ugm-3,19.50003,R,ugm-3,45.13330,R,ugm-3
04-01-2021,12:00,8.696,R,ugm-3 (Ref.eq),20.15644,R,ugm-3,18.53302,R,ugm-3,49.43913,R,ugm-3
04-01-2021,13:00,9.662,R,ugm-3 (Ref.eq),19.67977,R,ugm-3,22.32467,R,ugm-3,52.49989,R,ugm-3
04-01-2021,14:00,9.662,R,ugm-3 (Ref.eq),22.40361,R,ugm-3,25.25537,R,ugm-3,59.60709,R,ugm-3
04-01-2021,15:00,10.628,R,ugm-3 (Ref.eq),17.39855,R,ugm-3,21.82793,R,ugm-3,48.50533,R,ugm-3
04-01-2021,16:00,10.628,R,ugm-3 (Ref.eq),21.07574,R,ugm-3,22.36306,R,ugm-3,54.67874,R,ugm-3
04-01-2021,17:00,9.662,R,ugm-3 (Ref.eq),23.79958,R,ugm-3,34.21667,R,ugm-3,70.70884,R,ugm-3
04-01-2021,18:00,12.561,R,ugm-3 (Ref.eq),25.02531,R,ugm-3,31.14406,R,ugm-3,69.51566,R,ugm-3
04-01-2021,19:00,9.662,R,ugm-3 (Ref.eq),14.70875,R,ugm-3,23.92901,R,ugm-3,46.48212,R,ugm-3
04-01-2021,20:00,12.561,R,ugm-3 (Ref.eq),15.55995,R,ugm-3,21.89757,R,ugm-3,45.75583,R,ugm-3
04-01-2021,21:00,8.696,R,ugm-3 (Ref.eq),7.25223,R,ugm-3,16.68633,R,ugm-3,27.80627,R,ugm-3
04-01-2021,22:00,10.628,R,ugm-3 (Ref.eq),5.27745,R,ugm-3,14.99346,R,ugm-3,23.08543,R,ugm-3
04-01-2021,23:00,12.561,R,ugm-3 (Ref.eq),4.80077,R,ugm-3,10.95163,R,ugm-3,18.31271,R,ugm-3
04-01-2021,24:00,8.696,R,ugm-3 (Ref.eq),3.16647,R,ugm-3,8.52918,R,ugm-3,13.38436,R,ugm-3
05-01-2021,01:00,6.763,R,ugm-3 (Ref.eq),2.40652,R,ugm-3,6.61357,R,ugm-3,10.30350,R,ugm-3
05-01-2021,02:00,7.730,R,ugm-3 (Ref.eq),1.54380,R,ugm-3,5.72354,R,ugm-3,8.09067,R,ugm-3
05-01-2021,03:00,9.662,R,ugm-3 (Ref.eq),2.72436,R,ugm-3,4.32829,R,ugm-3,8.50558,R,ugm-3
05-01-2021,04:00,7.730,R,ugm-3 (Ref.eq),1.08974,R,ugm-3,4.65640,R,ugm-3,6.32732,R,ugm-3
05-01-2021,05:00,6.763,R,ugm-3 (Ref.eq),1.05569,R,ugm-3,4.29371,R,ugm-3,5.91241,R,ugm-3
05-01-2021,06:00,6.763,R,ugm-3 (Ref.eq),2.86058,R,ugm-3,8.16476,R,ugm-3,12.55091,R,ugm-3
05-01-2021,07:00,5.797,R,ugm-3 (Ref.eq),7.69631,R,ugm-3,14.13079,R,ugm-3,25.93164,R,ugm-3
05-01-2021,08:00,8.696,R,ugm-3 (Ref.eq),18.90023,R,ugm-3,22.15724,R,ugm-3,51.13718,R,ugm-3
05-01-2021,09:00,11.594,R,ugm-3 (Ref.eq),19.03645,R,ugm-3,28.89806,R,ugm-3,58.08686,R,ugm-3
05-01-2021,10:00,8.696,R,ugm-3 (Ref.eq),26.05166,R,ugm-3,29.18841,R,ugm-3,69.13374,R,ugm-3
05-01-2021,11:00,7.730,R,ugm-3 (Ref.eq),16.61858,R,ugm-3,20.26194,R,ugm-3,45.74340,R,ugm-3
05-01-2021,12:00,8.696,R,ugm-3 (Ref.eq),17.60616,R,ugm-3,16.93246,R,ugm-3,43.92819,R,ugm-3
05-01-2021,13:00,11.594,R,ugm-3 (Ref.eq),18.86617,R,ugm-3,21.58710,R,ugm-3,50.51482,R,ugm-3
05-01-2021,14:00,13.527,R,ugm-3 (Ref.eq),21.28404,R,ugm-3,24.93316,R,ugm-3,57.56823,R,ugm-3
05-01-2021,15:00,14.493,R,ugm-3 (Ref.eq),21.21593,R,ugm-3,25.03759,R,ugm-3,57.56823,R,ugm-3
05-01-2021,16:00,18.358,R,ugm-3 (Ref.eq),19.13861,R,ugm-3,26.25197,R,ugm-3,55.59743,R,ugm-3
05-01-2021,17:00,13.527,R,ugm-3 (Ref.eq),21.42026,R,ugm-3,32.03701,R,ugm-3,64.88095,R,ugm-3
05-01-2021,18:00,12.561,R,ugm-3 (Ref.eq),27.78844,R,ugm-3,29.48160,R,ugm-3,72.08994,R,ugm-3
05-01-2021,19:00,16.425,R,ugm-3 (Ref.eq),24.55327,R,ugm-3,29.67071,R,ugm-3,67.31852,R,ugm-3
05-01-2021,20:00,13.527,R,ugm-3 (Ref.eq),19.30888,R,ugm-3,24.79803,R,ugm-3,54.40457,R,ugm-3
05-01-2021,21:00,13.527,R,ugm-3 (Ref.eq),10.28445,R,ugm-3,18.30490,R,ugm-3,34.07417,R,ugm-3
05-01-2021,22:00,11.594,R,ugm-3 (Ref.eq),8.13902,R,ugm-3,12.88149,R,ugm-3,25.36114,R,ugm-3
05-01-2021,23:00,12.561,R,ugm-3 (Ref.eq),4.12059,R,ugm-3,11.78213,R,ugm-3,18.10028,R,ugm-3
05-01-2021,24:00,9.662,R,ugm-3 (Ref.eq),2.89463,R,ugm-3,10.65384,R,ugm-3,15.09221,R,ugm-3
06-01-2021,01:00,12.561,R,ugm-3 (Ref.eq),3.22443,R,ugm-3,10.88722,R,ugm-3,15.83128,R,ugm-3
06-01-2021,02:00,7.730,R,ugm-3 (Ref.eq),1.13536,R,ugm-3,9.11290,R,ugm-3,10.85376,R,ugm-3
06-01-2021,03:00,11.594,R,ugm-3 (Ref.eq),1.05589,R,ugm-3,9.58042,R,ugm-3,11.19942,R,ugm-3
06-01-2021,04:00,11.594,R,ugm-3 (Ref.eq),2.11178,R,ugm-3,9.10209,R,ugm-3,12.34010,R,ugm-3
06-01-2021,05:00,7.730,R,ugm-3 (Ref.eq),1.49868,R,ugm-3,8.12374,R,ugm-3,10.42169,R,ugm-3
06-01-2021,06:00,10.628,R,ugm-3 (Ref.eq),4.18949,R,ugm-3,11.51602,R,ugm-3,17.93982,R,ugm-3
06-01-2021,07:00,7.730,R,ugm-3 (Ref.eq),11.51258,R,ugm-3,16.87918,R,ugm-3,34.53155,R,ugm-3
06-01-2021,08:00,13.527,R,ugm-3 (Ref.eq),19.72125,R,ugm-3,22.38808,R,ugm-3,52.62692,R,ugm-3
06-01-2021,09:00,13.527,R,ugm-3 (Ref.eq),25.57973,R,ugm-3,28.07853,R,ugm-3,67.30023,R,ugm-3
06-01-2021,10:00,10.628,R,ugm-3 (Ref.eq),27.82774,R,ugm-3,26.80928,R,ugm-3,69.47790,R,ugm-3
06-01-2021,11:00,10.628,R,ugm-3 (Ref.eq),21.73085,R,ugm-3,24.28427,R,ugm-3,57.60444,R,ugm-3
06-01-2021,12:00,10.628,R,ugm-3 (Ref.eq),27.14653,R,ugm-3,25.05395,R,ugm-3,66.67804,R,ugm-3
06-01-2021,13:00,8.696,R,ugm-3 (Ref.eq),28.61115,R,ugm-3,24.41556,R,ugm-3,68.28537,R,ugm-3
06-01-2021,14:00,12.561,R,ugm-3 (Ref.eq),26.12470,R,ugm-3,23.56163,R,ugm-3,63.61894,R,ugm-3
06-01-2021,15:00,15.459,R,ugm-3 (Ref.eq),32.32378,R,ugm-3,29.19646,R,ugm-3,78.75890,R,ugm-3
06-01-2021,16:00,14.493,R,ugm-3 (Ref.eq),31.60850,R,ugm-3,30.18951,R,ugm-3,78.65520,R,ugm-3
06-01-2021,17:00,17.392,R,ugm-3 (Ref.eq),37.39885,R,ugm-3,33.75489,R,ugm-3,91.09900,R,ugm-3
06-01-2021,18:00,21.256,R,ugm-3 (Ref.eq),39.44251,R,ugm-3,43.06514,R,ugm-3,103.54281,R,ugm-3
06-01-2021,19:00,20.290,R,ugm-3 (Ref.eq),52.24940,R,ugm-3,43.07902,R,ugm-3,123.19365,R,ugm-3
06-01-2021,20:00,26.087,R,ugm-3 (Ref.eq),60.15153,R,ugm-3,43.56194,R,ugm-3,135.79300,R,ugm-3
06-01-2021,21:00,13.527,R,ugm-3 (Ref.eq),14.95273,R,ugm-3,30.32191,R,ugm-3,53.24910,R,ugm-3
06-01-2021,22:00,21.256,R,ugm-3 (Ref.eq),15.25928,R,ugm-3,25.23730,R,ugm-3,48.63453,R,ugm-3
06-01-2021,23:00,17.392,R,ugm-3 (Ref.eq),16.79202,R,ugm-3,27.81280,R,ugm-3,53.56020,R,ugm-3
06-01-2021,24:00,21.256,R,ugm-3 (Ref.eq),27.75962,R,ugm-3,34.48372,R,ugm-3,77.04788,R,ugm-3
07-01-2021,01:00,25.121,R,ugm-3 (Ref.eq),22.93866,R,ugm-3,33.73399,R,ugm-3,68.90611,R,ugm-3
07-01-2021,02:00,23.189,R,ugm-3 (Ref.eq),35.20289,R,ugm-3,33.58973,R,ugm-3,87.56674,R,ugm-3
07-01-2021,03:00,22.223,R,ugm-3 (Ref.eq),31.92107,R,ugm-3,31.60676,R,ugm-3,80.55172,R,ugm-3
07-01-2021,04:00,18.358,R,ugm-3 (Ref.eq),52.56586,R,ugm-3,26.07674,R,ugm-3,106.67661,R,ugm-3
07-01-2021,05:00,14.493,R,ugm-3 (Ref.eq),36.41796,R,ugm-3,24.29696,R,ugm-3,80.13704,R,ugm-3
07-01-2021,06:00,16.425,R,ugm-3 (Ref.eq),70.31493,R,ugm-3,29.80743,R,ugm-3,137.62215,R,ugm-3
07-01-2021,07:00,21.256,R,ugm-3 (Ref.eq),113.75075,R,ugm-3,34.68735,R,ugm-3,209.10273,R,ugm-3
07-01-2021,08:00,27.054,R,ugm-3 (Ref.eq),234.21276,R,ugm-3,58.35855,R,ugm-3,417.47978,R,ugm-3
07-01-2021,09:00,30.918,R,ugm-3 (Ref.eq),287.42590,R,ugm-3,69.23999,R,ugm-3,509.95357,R,ugm-3
07-01-2021,10:00,38.648,R,ugm-3 (Ref.eq),288.27759,R,ugm-3,77.99010,R,ugm-3,520.00957,R,ugm-3
07-01-2021,11:00,27.054,R,ugm-3 (Ref.eq),167.16830,R,ugm-3,56.65910,R,ugm-3,312.98024,R,ugm-3
07-01-2021,12:00,24.155,R,ugm-3 (Ref.eq),49.97675,R,ugm-3,42.53892,R,ugm-3,119.16886,R,ugm-3
07-01-2021,13:00,20.290,R,ugm-3 (Ref.eq),31.30786,R,ugm-3,38.04153,R,ugm-3,86.04624,R,ugm-3
07-01-2021,14:00,27.054,R,ugm-3 (Ref.eq),52.08892,R,ugm-3,38.98929,R,ugm-3,118.85785,R,ugm-3
07-01-2021,15:00,31.885,R,ugm-3 (Ref.eq),88.40467,R,ugm-3,47.78875,R,ugm-3,183.34070,R,ugm-3
07-01-2021,16:00,23.189,R,ugm-3 (Ref.eq),30.93312,R,ugm-3,43.59229,R,ugm-3,91.02241,R,ugm-3
07-01-2021,17:00,25.121,R,ugm-3 (Ref.eq),42.75448,R,ugm-3,45.47480,R,ugm-3,111.03075,R,ugm-3
07-01-2021,18:00,25.121,R,ugm-3 (Ref.eq),40.98298,R,ugm-3,47.67272,R,ugm-3,110.51240,R,ugm-3
07-01-2021,19:00,27.054,R,ugm-3 (Ref.eq),55.59785,R,ugm-3,46.15309,R,ugm-3,131.40194,R,ugm-3
07-01-2021,20:00,42.513,R,ugm-3 (Ref.eq),34.98713,R,ugm-3,45.41067,R,ugm-3,99.05685,R,ugm-3
07-01-2021,21:00,34.783,R,ugm-3 (Ref.eq),37.20150,R,ugm-3,45.90297,R,ugm-3,102.94448,R,ugm-3
07-01-2021,22:00,28.020,R,ugm-3 (Ref.eq),4.46282,R,ugm-3,38.56464,R,ugm-3,45.40754,R,ugm-3
07-01-2021,23:00,22.223,R,ugm-3 (Ref.eq),6.74533,R,ugm-3,40.76670,R,ugm-3,51.10939,R,ugm-3
07-01-2021,24:00,16.425,R,ugm-3 (Ref.eq),10.18613,R,ugm-3,39.53402,R,ugm-3,55.15253,R,ugm-3
08-01-2021,01:00,27.054,R,ugm-3 (Ref.eq),4.40687,R,ugm-3,38.01623,R,ugm-3,44.77334,R,ugm-3
08-01-2021,02:00,27.054,R,ugm-3 (Ref.eq),8.58658,R,ugm-3,35.61492,R,ugm-3,48.78083,R,ugm-3
08-01-2021,03:00,22.223,R,ugm-3 (Ref.eq),11.38063,R,ugm-3,39.60486,R,ugm-3,57.05491,R,ugm-3
08-01-2021,04:00,21.256,R,ugm-3 (Ref.eq),19.31981,R,ugm-3,35.87844,R,ugm-3,65.50174,R,ugm-3
08-01-2021,05:00,12.561,R,ugm-3 (Ref.eq),13.25468,R,ugm-3,37.24956,R,ugm-3,57.57312,R,ugm-3
08-01-2021,06:00,13.527,R,ugm-3 (Ref.eq),49.03211,R,ugm-3,44.83591,R,ugm-3,120.01742,R,ugm-3
08-01-2021,07:00,16.425,R,ugm-3 (Ref.eq),42.96698,R,ugm-3,49.26446,R,ugm-3,115.14625,R,ugm-3
08-01-2021,08:00,22.223,R,ugm-3 (Ref.eq),87.77394,R,ugm-3,55.75367,R,ugm-3,190.33851,R,ugm-3
08-01-2021,09:00,22.223,R,ugm-3 (Ref.eq),85.76359,R,ugm-3,55.88237,R,ugm-3,187.38471,R,ugm-3
08-01-2021,10:00,20.290,R,ugm-3 (Ref.eq),76.76813,R,ugm-3,53.55890,R,ugm-3,171.26838,R,ugm-3
08-01-2021,11:00,25.121,R,ugm-3 (Ref.eq),85.52508,R,ugm-3,58.94278,R,ugm-3,190.07940,R,ugm-3
08-01-2021,12:00,17.392,R,ugm-3 (Ref.eq),86.54729,R,ugm-3,64.06032,R,ugm-3,196.76431,R,ugm-3
08-01-2021,13:00,16.425,R,ugm-3 (Ref.eq),49.30470,R,ugm-3,52.39838,R,ugm-3,127.99785,R,ugm-3
08-01-2021,14:00,9.662,R,ugm-3 (Ref.eq),29.33749,R,ugm-3,36.53090,R,ugm-3,81.51442,R,ugm-3
08-01-2021,15:00,12.561,R,ugm-3 (Ref.eq),31.99524,R,ugm-3,38.15605,R,ugm-3,87.21473,R,ugm-3
08-01-2021,16:00,14.493,R,ugm-3 (Ref.eq),47.15805,R,ugm-3,45.37747,R,ugm-3,117.68548,R,ugm-3
08-01-2021,17:00,12.561,R,ugm-3 (Ref.eq),42.52402,R,ugm-3,50.98008,R,ugm-3,116.18267,R,ugm-3
08-01-2021,18:00,19.324,R,ugm-3 (Ref.eq),43.03513,R,ugm-3,51.59556,R,ugm-3,117.58183,R,ugm-3
08-01-2021,19:00,23.189,R,ugm-3 (Ref.eq),38.74184,R,ugm-3,42.37311,R,ugm-3,101.77643,R,ugm-3
08-01-2021,20:00,21.256,R,ugm-3 (Ref.eq),33.52856,R,ugm-3,45.18460,R,ugm-3,96.59433,R,ugm-3
08-01-2021,21:00,24.155,R,ugm-3 (Ref.eq),20.44424,R,ugm-3,40.01011,R,ugm-3,71.35751,R,ugm-3
08-01-2021,22:00,15.459,R,ugm-3 (Ref.eq),10.22212,R,ugm-3,33.03803,R,ugm-3,48.71174,R,ugm-3
08-01-2021,23:00,18.358,R,ugm-3 (Ref.eq),6.74660,R,ugm-3,28.41746,R,ugm-3,38.76210,R,ugm-3
08-01-2021,24:00,19.324,R,ugm-3 (Ref.eq),3.47552,R,ugm-3,24.67530,R,ugm-3,30.00436,R,ugm-3
09-01-2021,01:00,21.256,R,ugm-3 (Ref.eq),2.95361,R,ugm-3,19.85497,R,ugm-3,24.38378,R,ugm-3
09-01-2021,02:00,22.223,R,ugm-3 (Ref.eq),1.86305,R,ugm-3,15.31032,R,ugm-3,18.16695,R,ugm-3
09-01-2021,03:00,21.256,R,ugm-3 (Ref.eq),0.95424,R,ugm-3,13.61266,R,ugm-3,15.07581,R,ugm-3
09-01-2021,04:00,21.256,R,ugm-3 (Ref.eq),3.16946,R,ugm-3,22.18344,R,ugm-3,27.04320,R,ugm-3
09-01-2021,05:00,16.425,R,ugm-3 (Ref.eq),0.71568,R,ugm-3,10.66280,R,ugm-3,11.76017,R,ugm-3
09-01-2021,06:00,13.527,R,ugm-3 (Ref.eq),2.89681,R,ugm-3,14.10515,R,ugm-3,18.54687,R,ugm-3
09-01-2021,07:00,21.256,R,ugm-3 (Ref.eq),6.47523,R,ugm-3,20.22307,R,ugm-3,30.15162,R,ugm-3
09-01-2021,08:00,21.256,R,ugm-3 (Ref.eq),6.03219,R,ugm-3,21.57588,R,ugm-3,30.82511,R,ugm-3
09-01-2021,09:00,10.628,R,ugm-3 (Ref.eq),10.05365,R,ugm-3,26.08195,R,ugm-3,41.49733,R,ugm-3
09-01-2021,10:00,11.594,R,ugm-3 (Ref.eq),21.53866,R,ugm-3,34.27168,R,ugm-3,67.29717,R,ugm-3
09-01-2021,11:00,12.561,R,ugm-3 (Ref.eq),26.13948,R,ugm-3,35.29906,R,ugm-3,75.37904,R,ugm-3
09-01-2021,12:00,13.527,R,ugm-3 (Ref.eq),24.50364,R,ugm-3,32.00495,R,ugm-3,69.57667,R,ugm-3
09-01-2021,13:00,14.493,R,ugm-3 (Ref.eq),31.28559,R,ugm-3,35.85300,R,ugm-3,83.82357,R,ugm-3
09-01-2021,14:00,20.290,R,ugm-3 (Ref.eq),41.44148,R,ugm-3,43.33493,R,ugm-3,106.87764,R,ugm-3
09-01-2021,15:00,20.290,R,ugm-3 (Ref.eq),51.56328,R,ugm-3,40.45592,R,ugm-3,119.51852,R,ugm-3
09-01-2021,16:00,22.223,R,ugm-3 (Ref.eq),49.51847,R,ugm-3,44.05752,R,ugm-3,119.98478,R,ugm-3
09-01-2021,17:00,24.155,R,ugm-3 (Ref.eq),49.34807,R,ugm-3,47.89347,R,ugm-3,123.55946,R,ugm-3
09-01-2021,18:00,22.223,R,ugm-3 (Ref.eq),51.35880,R,ugm-3,44.55136,R,ugm-3,123.30043,R,ugm-3
09-01-2021,19:00,24.155,R,ugm-3 (Ref.eq),50.02968,R,ugm-3,53.53145,R,ugm-3,130.24255,R,ugm-3
09-01-2021,20:00,24.155,R,ugm-3 (Ref.eq),37.45410,R,ugm-3,46.80667,R,ugm-3,104.23549,R,ugm-3
09-01-2021,21:00,33.817,R,ugm-3 (Ref.eq),7.39540,R,ugm-3,31.14221,R,ugm-3,42.48166,R,ugm-3
09-01-2021,22:00,22.223,R,ugm-3 (Ref.eq),9.64469,R,ugm-3,26.86444,R,ugm-3,41.65275,R,ugm-3
09-01-2021,23:00,23.189,R,ugm-3 (Ref.eq),5.38467,R,ugm-3,27.12774,R,ugm-3,35.38411,R,ugm-3
09-01-2021,24:00,33.817,R,ugm-3 (Ref.eq),8.45188,R,ugm-3,30.66204,R,ugm-3,43.62141,R,ugm-3
10-01-2021,01:00,37.682,R,ugm-3 (Ref.eq),6.45373,R,ugm-3,32.85076,R,ugm-3,42.74633,R,ugm-3
10-01-2021,02:00,25.121,R,ugm-3 (Ref.eq),1.90885,R,ugm-3,26.90580,R,ugm-3,29.83266,R,ugm-3
10-01-2021,03:00,21.256,R,ugm-3 (Ref.eq),8.38530,R,ugm-3,27.85187,R,ugm-3,40.70915,R,ugm-3
10-01-2021,04:00,22.223,R,ugm-3 (Ref.eq),2.79510,R,ugm-3,23.37160,R,ugm-3,27.65736,R,ugm-3
10-01-2021,05:00,16.425,R,ugm-3 (Ref.eq),1.63616,R,ugm-3,18.67452,R,ugm-3,21.18326,R,ugm-3
10-01-2021,06:00,15.459,R,ugm-3 (Ref.eq),1.49981,R,ugm-3,21.42143,R,ugm-3,23.72111,R,ugm-3
10-01-2021,07:00,15.459,R,ugm-3 (Ref.eq),2.04520,R,ugm-3,22.08718,R,ugm-3,25.22310,R,ugm-3
10-01-2021,08:00,20.290,R,ugm-3 (Ref.eq),6.06741,R,ugm-3,28.19476,R,ugm-3,37.49799,R,ugm-3
10-01-2021,09:00,18.358,R,ugm-3 (Ref.eq),21.67907,R,ugm-3,39.16557,R,ugm-3,72.40635,R,ugm-3
10-01-2021,10:00,19.324,R,ugm-3 (Ref.eq),43.32405,R,ugm-3,42.74996,R,ugm-3,109.17924,R,ugm-3
10-01-2021,11:00,21.256,R,ugm-3 (Ref.eq),32.34817,R,ugm-3,41.45193,R,ugm-3,91.05176,R,ugm-3
10-01-2021,12:00,15.459,R,ugm-3 (Ref.eq),28.18961,R,ugm-3,47.41396,R,ugm-3,90.63742,R,ugm-3
10-01-2021,13:00,17.392,R,ugm-3 (Ref.eq),22.39489,R,ugm-3,41.69350,R,ugm-3,76.03185,R,ugm-3
10-01-2021,14:00,21.256,R,ugm-3 (Ref.eq),8.96477,R,ugm-3,34.93945,R,ugm-3,48.68524,R,ugm-3
10-01-2021,15:00,11.594,R,ugm-3 (Ref.eq),5.82881,R,ugm-3,28.30165,R,ugm-3,37.23903,R,ugm-3
10-01-2021,16:00,20.290,R,ugm-3 (Ref.eq),2.69284,R,ugm-3,29.48457,R,ugm-3,33.61353,R,ugm-3
10-01-2021,17:00,28.986,R,ugm-3 (Ref.eq),5.21525,R,ugm-3,45.34999,R,ugm-3,53.34659,R,ugm-3
10-01-2021,18:00,30.918,R,ugm-3 (Ref.eq),7.83991,R,ugm-3,53.08253,R,ugm-3,65.10356,R,ugm-3
10-01-2021,19:00,25.121,R,ugm-3 (Ref.eq),5.93107,R,ugm-3,46.06517,R,ugm-3,55.15934,R,ugm-3
10-01-2021,20:00,26.087,R,ugm-3 (Ref.eq),5.07890,R,ugm-3,44.57499,R,ugm-3,52.36253,R,ugm-3
10-01-2021,21:00,28.986,R,ugm-3 (Ref.eq),4.09039,R,ugm-3,40.80782,R,ugm-3,47.07966,R,ugm-3
10-01-2021,22:00,17.392,R,ugm-3 (Ref.eq),0.88625,R,ugm-3,32.25463,R,ugm-3,33.61353,R,ugm-3
10-01-2021,23:00,19.324,R,ugm-3 (Ref.eq),1.80659,R,ugm-3,31.41319,R,ugm-3,34.18325,R,ugm-3
10-01-2021,24:00,10.628,R,ugm-3 (Ref.eq),2.62467,R,ugm-3,21.30225,R,ugm-3,25.32669,R,ugm-3
11-01-2021,01:00,15.459,R,ugm-3 (Ref.eq),0.50003,R,ugm-3,18.28786,R,ugm-3,19.05457,R,ugm-3
11-01-2021,02:00,10.628,R,ugm-3 (Ref.eq),0.54549,R,ugm-3,18.35624,R,ugm-3,19.19265,R,ugm-3
11-01-2021,03:00,12.561,R,ugm-3 (Ref.eq),0.85233,R,ugm-3,17.12634,R,ugm-3,18.43322,R,ugm-3
11-01-2021,04:00,5.797,R,ugm-3 (Ref.eq),0.75005,R,ugm-3,7.85944,R,ugm-3,9.00950,R,ugm-3
11-01-2021,05:00,3.865,R,ugm-3 (Ref.eq),0.68186,R,ugm-3,7.08376,R,ugm-3,8.12926,R,ugm-3
11-01-2021,06:00,14.493,R,ugm-3 (Ref.eq),1.22735,R,ugm-3,14.68728,R,ugm-3,16.56919,R,ugm-3
11-01-2021,07:00,13.527,R,ugm-3 (Ref.eq),1.29553,R,ugm-3,18.62147,R,ugm-3,20.60793,R,ugm-3
11-01-2021,08:00,13.527,R,ugm-3 (Ref.eq),0.95461,R,ugm-3,20.38691,R,ugm-3,21.85062,R,ugm-3
11-01-2021,09:00,10.628,R,ugm-3 (Ref.eq),5.96628,R,ugm-3,26.32026,R,ugm-3,35.46842,R,ugm-3
11-01-2021,10:00,5.797,R,ugm-3 (Ref.eq),8.52325,R,ugm-3,21.62294,R,ugm-3,34.69174,R,ugm-3
11-01-2021,11:00,9.662,R,ugm-3 (Ref.eq),4.09116,R,ugm-3,15.26692,R,ugm-3,21.53995,R,ugm-3
11-01-2021,12:00,6.763,R,ugm-3 (Ref.eq),3.47749,R,ugm-3,11.96202,R,ugm-3,17.29409,R,ugm-3
11-01-2021,13:00,6.763,R,ugm-3 (Ref.eq),2.31833,R,ugm-3,7.88838,R,ugm-3,11.44310,R,ugm-3
11-01-2021,14:00,7.730,R,ugm-3 (Ref.eq),2.35242,R,ugm-3,7.31832,R,ugm-3,10.92531,R,ugm-3
11-01-2021,15:00,10.628,R,ugm-3 (Ref.eq),1.87512,R,ugm-3,6.60037,R,ugm-3,9.47551,R,ugm-3
11-01-2021,16:00,6.763,R,ugm-3 (Ref.eq),1.43191,R,ugm-3,9.55821,R,ugm-3,11.75377,R,ugm-3
11-01-2021,17:00,4.831,R,ugm-3 (Ref.eq),1.70465,R,ugm-3,12.66096,R,ugm-3,15.27472,R,ugm-3
11-01-2021,18:00,12.561,R,ugm-3 (Ref.eq),2.45470,R,ugm-3,12.65004,R,ugm-3,16.41385,R,ugm-3
11-01-2021,19:00,10.628,R,ugm-3 (Ref.eq),1.90921,R,ugm-3,11.15640,R,ugm-3,14.08381,R,ugm-3